When you browse on this site, cookies collect data to enhance your experience and personalize the content and advertising you see.
Visit our Privacy Policy to learn more. By continuing to use the site, you agree to this use of cookies and data.
  • In Hungary
  • List of Countries
  • For 7 days
  • Water Temperature
  • Weather Map
  • News
  • Weather Widgets
  • user-avatar
    Login

    Hourly Weather Khlerivka

    Today, 3 April, Friday

    Time Temperature Precipitation Wind Pressure Humidity
    00:00 +3°C° 0 mm 3 mps 746 mmHg 55%
    01:00 +3°C° 0 mm 3 mps 746 mmHg 55%
    02:00 +2°C° 0 mm 3 mps 746 mmHg 55%
    03:00 +2°C° 0 mm 3 mps 746 mmHg 56%
    04:00 +2°C° 0 mm 3 mps 746 mmHg 56%
    05:00 +1°C° 0 mm 3 mps 746 mmHg 57%
    06:00 +3°C° 0 mm 3 mps 746 mmHg 52%
    07:00 +4°C° 0 mm 4 mps 746 mmHg 48%
    08:00 +6°C° 0 mm 4 mps 746 mmHg 44%
    09:00 +7°C° 0 mm 5 mps 746 mmHg 40%
    10:00 +9°C° 0 mm 5 mps 746 mmHg 36%
    11:00 +10°C° 0 mm 6 mps 746 mmHg 32%
    12:00 +11°C° 0 mm 6 mps 746 mmHg 31%
    13:00 +11°C° 0 mm 6 mps 746 mmHg 31%
    14:00 +13°C° 0 mm 6 mps 746 mmHg 30%
    15:00 +11°C° 0 mm 6 mps 745 mmHg 33%
    16:00 +11°C° 0 mm 6 mps 745 mmHg 35%
    17:00 +12°C° 0 mm 5 mps 745 mmHg 37%
    18:00 +10°C° 0 mm 5 mps 745 mmHg 43%
    19:00 +8°C° 0 mm 4 mps 746 mmHg 48%
    20:00 +8°C° 0 mm 3 mps 746 mmHg 53%
    21:00 +7°C° 0 mm 3 mps 747 mmHg 55%
    22:00 +7°C° 0 mm 3 mps 747 mmHg 57%
    23:00 +5°C° 0 mm 3 mps 747 mmHg 58%

    Tomorrow, 4 April, Saturday

    Time Temperature Precipitation Wind Pressure Humidity
    00:00 +5°C° 0 mm 3 mps 748 mmHg 61%
    01:00 +4°C° 0 mm 3 mps 748 mmHg 64%
    02:00 +4°C° 0 mm 3 mps 749 mmHg 67%
    03:00 +4°C° 0 mm 3 mps 749 mmHg 72%
    04:00 +3°C° 0 mm 3 mps 750 mmHg 78%
    05:00 +3°C° 0 mm 3 mps 750 mmHg 83%
    06:00 +4°C° 0 mm 3 mps 751 mmHg 75%
    07:00 +5°C° 0 mm 3 mps 751 mmHg 68%
    08:00 +6°C° 0 mm 4 mps 752 mmHg 60%
    09:00 +7°C° 0 mm 4 mps 752 mmHg 52%
    10:00 +8°C° 0 mm 4 mps 753 mmHg 44%
    11:00 +11°C° 0 mm 4 mps 753 mmHg 35%
    12:00 +11°C° 0 mm 4 mps 753 mmHg 33%
    13:00 +12°C° 0 mm 4 mps 753 mmHg 31%
    14:00 +12°C° 0 mm 3 mps 753 mmHg 29%
    15:00 +12°C° 0 mm 4 mps 753 mmHg 30%
    16:00 +11°C° 0 mm 4 mps 753 mmHg 32%
    17:00 +11°C° 0 mm 4 mps 753 mmHg 33%
    18:00 +10°C° 0 mm 3 mps 754 mmHg 36%
    19:00 +8°C° 0 mm 3 mps 755 mmHg 40%
    20:00 +7°C° 0 mm 2 mps 755 mmHg 43%
    21:00 +6°C° 0 mm 2 mps 756 mmHg 44%
    22:00 +6°C° 0 mm 2 mps 756 mmHg 44%
    23:00 +5°C° 0 mm 2 mps 757 mmHg 45%

    Day after tomorrow, 5 April, Sunday

    Time Temperature Precipitation Wind Pressure Humidity
    00:00 +4°C° 0 mm 2 mps 757 mmHg 47%
    01:00 +4°C° 0 mm 2 mps 757 mmHg 49%
    02:00 +3°C° 0 mm 2 mps 758 mmHg 51%
    03:00 +3°C° 0 mm 2 mps 758 mmHg 53%
    04:00 +1°C° 0 mm 3 mps 758 mmHg 54%
    05:00 +1°C° 0 mm 3 mps 759 mmHg 56%
    06:00 +2°C° 0 mm 3 mps 759 mmHg 54%
    07:00 +3°C° 0 mm 4 mps 759 mmHg 52%
    08:00 +5°C° 0 mm 5 mps 760 mmHg 49%
    09:00 +5°C° 0 mm 5 mps 760 mmHg 45%
    10:00 +5°C° 0 mm 6 mps 761 mmHg 41%
    11:00 +6°C° 0 mm 7 mps 761 mmHg 37%
    12:00 +7°C° 0 mm 6 mps 761 mmHg 36%
    13:00 +7°C° 0 mm 6 mps 761 mmHg 35%
    14:00 +8°C° 0 mm 6 mps 761 mmHg 35%
    15:00 +7°C° 0 mm 6 mps 761 mmHg 35%
    16:00 +7°C° 0 mm 6 mps 761 mmHg 35%
    17:00 +7°C° 0 mm 6 mps 762 mmHg 35%
    18:00 +5°C° 0 mm 5 mps 762 mmHg 37%
    19:00 +4°C° 0 mm 4 mps 763 mmHg 39%
    20:00 +3°C° 0 mm 3 mps 763 mmHg 41%
    21:00 +2°C° 0 mm 3 mps 764 mmHg 43%
    22:00 +2°C° 0 mm 3 mps 764 mmHg 45%
    23:00 +1°C° 0 mm 3 mps 765 mmHg 47%

    6 April, Monday

    Time Temperature Precipitation Wind Pressure Humidity
    00:00 +1°C° 0 mm 3 mps 765 mmHg 48%
    01:00 +1°C° 0 mm 2 mps 765 mmHg 50%
    02:00 +1°C° 0 mm 2 mps 765 mmHg 52%
    03:00 -1°C° 0 mm 2 mps 766 mmHg 52%
    04:00 -1°C° 0 mm 2 mps 766 mmHg 53%
    05:00 +1°C° 0 mm 1 mps 766 mmHg 53%
    06:00 +2°C° 0 mm 1 mps 767 mmHg 48%
    07:00 +4°C° 0 mm 1 mps 767 mmHg 43%
    08:00 +5°C° 0 mm 1 mps 767 mmHg 39%
    09:00 +6°C° 0 mm 2 mps 767 mmHg 36%
    10:00 +7°C° 0 mm 2 mps 767 mmHg 33%
    11:00 +8°C° 0 mm 2 mps 767 mmHg 29%
    12:00 +9°C° 0 mm 2 mps 767 mmHg 28%
    13:00 +10°C° 0 mm 3 mps 767 mmHg 27%
    14:00 +10°C° 0 mm 3 mps 767 mmHg 26%
    15:00 +10°C° 0 mm 3 mps 767 mmHg 28%
    16:00 +10°C° 0 mm 2 mps 766 mmHg 29%
    17:00 +10°C° 0 mm 2 mps 766 mmHg 30%
    18:00 +9°C° 0 mm 2 mps 766 mmHg 33%
    19:00 +8°C° 0 mm 1 mps 766 mmHg 37%
    20:00 +7°C° 0 mm 1 mps 766 mmHg 41%
    21:00 +6°C° 0 mm 1 mps 766 mmHg 42%
    22:00 +6°C° 0 mm 1 mps 766 mmHg 43%
    23:00 +5°C° 0 mm 1 mps 766 mmHg 44%

    7 April, Tuesday

    Time Temperature Precipitation Wind Pressure Humidity
    00:00 +5°C° 0 mm 1 mps 766 mmHg 45%
    01:00 +5°C° 0 mm 1 mps 766 mmHg 46%
    02:00 +4°C° 0 mm 1 mps 766 mmHg 47%
    03:00 +4°C° 0 mm 1 mps 766 mmHg 48%
    04:00 +4°C° 0 mm 1 mps 766 mmHg 49%
    05:00 +4°C° 0 mm 1 mps 766 mmHg 50%
    06:00 +4°C° 0 mm 2 mps 766 mmHg 47%
    07:00 +6°C° 0 mm 2 mps 766 mmHg 44%
    08:00 +7°C° 0 mm 2 mps 766 mmHg 41%
    09:00 +9°C° 0 mm 2 mps 765 mmHg 37%
    10:00 +10°C° 0 mm 2 mps 765 mmHg 33%
    11:00 +13°C° 0 mm 2 mps 765 mmHg 29%
    12:00 +14°C° 0 mm 2 mps 765 mmHg 28%
    13:00 +14°C° 0 mm 2 mps 764 mmHg 26%
    14:00 +15°C° 0 mm 2 mps 764 mmHg 25%
    15:00 +14°C° 0 mm 3 mps 763 mmHg 26%
    16:00 +14°C° 0 mm 3 mps 763 mmHg 27%
    17:00 +14°C° 0 mm 3 mps 762 mmHg 29%
    18:00 +14°C° 0 mm 2 mps 762 mmHg 32%
    19:00 +12°C° 0 mm 2 mps 762 mmHg 36%
    20:00 +9°C° 0 mm 2 mps 762 mmHg 40%
    21:00 +9°C° 0 mm 2 mps 762 mmHg 41%
    22:00 +8°C° 0 mm 2 mps 762 mmHg 43%
    23:00 +8°C° 0 mm 2 mps 762 mmHg 45%

    8 April, Wednesday

    Time Temperature Precipitation Wind Pressure Humidity
    00:00 +7°C° 0 mm 2 mps 762 mmHg 48%
    01:00 +7°C° 0 mm 3 mps 762 mmHg 50%
    02:00 +5°C° 0 mm 3 mps 761 mmHg 53%
    03:00 +5°C° 0 mm 3 mps 761 mmHg 55%
    04:00 +4°C° 0 mm 3 mps 761 mmHg 57%
    05:00 +4°C° 0 mm 3 mps 761 mmHg 59%
    06:00 +6°C° 0 mm 4 mps 761 mmHg 55%
    07:00 +7°C° 0 mm 4 mps 761 mmHg 52%
    08:00 +9°C° 0 mm 5 mps 760 mmHg 49%
    09:00 +12°C° 0 mm 5 mps 760 mmHg 44%
    10:00 +14°C° 0 mm 5 mps 760 mmHg 40%
    11:00 +16°C° 0 mm 5 mps 760 mmHg 35%
    12:00 +17°C° 0 mm 6 mps 759 mmHg 34%
    13:00 +17°C° 0 mm 6 mps 759 mmHg 33%
    14:00 +19°C° 0 mm 6 mps 759 mmHg 32%
    15:00 +17°C° 0 mm 6 mps 758 mmHg 34%
    16:00 +17°C° 0 mm 5 mps 758 mmHg 37%
    17:00 +17°C° 0 mm 5 mps 757 mmHg 40%
    18:00 +15°C° 0 mm 4 mps 757 mmHg 46%
    19:00 +13°C° 0 mm 4 mps 757 mmHg 53%
    20:00 +12°C° 0 mm 3 mps 757 mmHg 60%
    21:00 +11°C° 0 mm 3 mps 758 mmHg 64%
    22:00 +11°C° 0 mm 3 mps 758 mmHg 68%
    23:00 +10°C° 0 mm 3 mps 758 mmHg 72%
    Show more